Fort Stockton, TX

4:48 PM CDT on October 17, 2017 (GMT -0500)
Fort Stockton-Pecos County

Weather History for KFST - December, 2014

Change the Weather History Date:

Tuesday, December 9, 2014

  Actual Average Record
Temperature  
Mean Temperature 52 °F -  
Max Temperature 63 °F 60 °F 81 °F (1996)
Min Temperature 42 °F 36 °F 18 °F (2005)
Degree Days  
Heating Degree Days 12    
Growing Degree Days 2 (Base 50)    
Moisture  
Dew Point 47 °F    
Average Humidity 87    
Maximum Humidity 100    
Minimum Humidity 58    
Precipitation  
Precipitation 0.00 in - - ()
Sea Level Pressure  
Sea Level Pressure 30.24 in    
Wind  
Wind Speed 4 mph (SSE)    
Max Wind Speed 13 mph    
Max Gust Speed -    
Visibility 10 miles    
Events      
Averages and records for this station are not official NWS values.
T = Trace of Precipitation, MM = Missing Value Source: NWS Daily Summary

Daily Weather History Graph

Daily Weather History Graph

Search for Another Location

Airport or City:

Trip Planner

Search our weather history database for the weather conditions in past years. The results will help you decide how hot, cold, wet, or windy it might be!

Date:

Astronomy

Dec. 09, 2014 Rise Set
Actual Time 7:38 AM CST 5:50 PM CST
Civil Twilight 7:11 AM CST 6:16 PM CST
Nautical Twilight 6:41 AM CST 6:46 PM CST
Astronomical Twilight 6:12 AM CST 7:16 PM CST
Moon 9:03 PM CST (12/9) 9:59 AM CST (12/9)
Length of Visible Light 11h 04m
Length of Day
10h 11m
Waning Gibbous, 90% of the Moon is Illuminated
Dec 9
Waning Gibbous
Dec 14
Last Quarter
Dec 21
New
Dec 28
First Quarter
Jan 4
Full

Hourly Weather History & Observations

Time (CST) Temp. Windchill Dew Point Humidity Pressure Visibility Wind Dir Wind Speed Gust Speed Precip Events Conditions
12:53 AM 44.1 °F - 43.0 °F 96% 30.28 in 10.0 mi Calm Calm - N/A   Clear
1:53 AM 42.1 °F - 41.0 °F 96% 30.26 in 10.0 mi Calm Calm - N/A   Clear
2:53 AM 43.0 °F - 43.0 °F 100% 30.26 in 10.0 mi Calm Calm - N/A   Clear
3:53 AM 45.0 °F 42.6 °F 44.1 °F 97% 30.24 in 10.0 mi SE 4.6 mph - N/A   Clear
4:53 AM 44.1 °F - 43.0 °F 96% 30.25 in 10.0 mi Calm Calm - N/A   Scattered Clouds
5:02 AM 44.1 °F - 43.0 °F 96% 30.31 in 10.0 mi Calm Calm - N/A   Mostly Cloudy
5:11 AM 44.1 °F 42.5 °F 43.0 °F 96% 30.31 in 10.0 mi ESE 3.5 mph - N/A   Overcast
5:20 AM 45.0 °F 43.5 °F 45.0 °F 100% 30.31 in 10.0 mi SE 3.5 mph - N/A   Overcast
5:35 AM 46.0 °F 44.8 °F 46.0 °F 100% 30.31 in 10.0 mi South 3.5 mph - N/A   Overcast
5:53 AM 46.0 °F 43.9 °F 46.0 °F 100% 30.25 in 10.0 mi SE 4.6 mph - N/A   Overcast
6:12 AM 46.9 °F - 46.0 °F 97% 30.31 in 10.0 mi SSE 4.6 mph - N/A   Overcast
6:30 AM 46.9 °F - 46.0 °F 97% 30.32 in 10.0 mi South 4.6 mph - N/A   Overcast
6:48 AM 46.4 °F 45.2 °F 46.4 °F 100% 30.32 in 10.0 mi SW 3.5 mph - N/A   Overcast
6:53 AM 46.9 °F - 46.0 °F 97% 30.26 in 10.0 mi Calm Calm - N/A   Overcast
7:08 AM 46.0 °F 44.8 °F 45.0 °F 96% 30.32 in 10.0 mi SW 3.5 mph - N/A   Overcast
7:53 AM 45.0 °F 41.2 °F 45.0 °F 100% 30.27 in 10.0 mi SSW 6.9 mph - N/A   Overcast
8:53 AM 46.9 °F - 45.0 °F 93% 30.27 in 10.0 mi SW 5.8 mph - N/A   Overcast
9:27 AM 50.0 °F - 46.9 °F 89% 30.33 in 10.0 mi South 5.8 mph - N/A   Overcast
9:53 AM 54.0 °F - 48.0 °F 80% 30.27 in 10.0 mi SSE 12.7 mph - N/A   Overcast
10:10 AM 55.0 °F - 48.9 °F 80% 30.33 in 10.0 mi SSE 9.2 mph - N/A   Scattered Clouds
10:53 AM 57.9 °F - 48.9 °F 72% 30.26 in 10.0 mi South 8.1 mph - N/A   Mostly Cloudy
11:53 AM 60.1 °F - 48.9 °F 67% 30.23 in 10.0 mi SSW 10.4 mph - N/A   Mostly Cloudy
12:10 PM 60.1 °F - 48.9 °F 67% 30.29 in 10.0 mi South 8.1 mph - N/A   Partly Cloudy
12:53 PM 62.1 °F - 48.9 °F 62% 30.21 in 10.0 mi South 6.9 mph - N/A   Clear
1:53 PM 62.1 °F - 48.9 °F 62% 30.16 in 10.0 mi Calm Calm - N/A   Partly Cloudy
2:53 PM 63.0 °F - 48.0 °F 58% 30.13 in 10.0 mi East 4.6 mph - N/A   Clear
3:53 PM 62.1 °F - 48.9 °F 62% 30.12 in 10.0 mi SE 9.2 mph - N/A   Clear
4:53 PM 59.0 °F - 48.9 °F 69% 30.13 in 10.0 mi SE 12.7 mph - N/A   Partly Cloudy
5:53 PM 55.9 °F - 48.9 °F 77% 30.13 in 10.0 mi ESE 10.4 mph - N/A   Clear
6:53 PM 55.0 °F - 48.9 °F 80% 30.14 in 10.0 mi SE 9.2 mph - N/A   Clear
7:53 PM 55.0 °F - 50.0 °F 83% 30.14 in 10.0 mi SE 11.5 mph - N/A   Clear
8:53 PM 54.0 °F - 51.1 °F 90% 30.15 in 10.0 mi SE 9.2 mph - N/A   Clear
9:53 PM 52.0 °F - 50.0 °F 93% 30.14 in 10.0 mi SSE 8.1 mph - N/A   Clear
10:53 PM 52.0 °F - 50.0 °F 93% 30.14 in 10.0 mi SSE 8.1 mph - N/A   Scattered Clouds
11:53 PM 51.1 °F - 50.0 °F 96% 30.15 in 10.0 mi SSW 4.6 mph - N/A   Overcast